Find Kosmos-1137

NORAD ID: 11545 Int'l Des: 1979-084 Owner: GUKOSR Country: SU operational
LEOCIRCULAR

リアルタイム位置

3D地球を読み込み中...

Kosmos-1137について

説明を読み込み中...

次回通過

Passes for default location (London). Set your location on the main map for personalized predictions.

高度履歴

Loading altitude history...

軌道要素

1 11545U 79084H 26107.09861464 .00000003 00000-0 13272-3 0 9999
2 11545 74.0264 333.1208 0026841 203.5944 272.5361 12.43197521112936
Epoch: Apr 17, 2026 • Age: 13 hours

現在のステータス

高度 1516.0 km
速度 7.11 km/s
衛星直下点 72.10°N, 47.01°W
打ち上げ日 Sep 25, 1979
運用期間 46.5 years
タイプ other

技術仕様

分類 Payload
質量 60.00 kg
乾燥質量 60.00 kg
総質量 60.00 kg
長さ 0.80 m
直径 0.80 m
スパン 0.80 m
形状 Poly
製造者 NPOPM
バスタイプ Strela-1 11F625
フェーズステータス In Orbit
所有者/国 GUKOSR/SU

Most Searched